IBE07SC LEMD-EGPH

Flight info

Callsign IBE07SC
Flight time N/A
Altitude 36000
Route SIE N865 DELOG DCT NOVAN DCT NOZHU DCT BHD DCT WIGGU DCT AZCAL DCT DIZIM DCT KISWO DCT AVTIC DCT ANJAK N38 NOKIN UP16 RIBEL DCT INPIP
Aircraft A320/M-SDE3FGHIRWY/LB1

Departure

Time N/A
Airport Adolfo Suárez Madrid–Barajas Airport (LEMD)

Arrival

Time 2026-04-22 17:00
Airport Edinburgh Airport (EGPH)
Time Latitude Longitude Altitude Speed Heading
2026-04-22 14:49 41.18289 -3.60392 26937 ft 469 kts 358°
2026-04-22 14:50 41.21596 -3.60413 27196 ft 470 kts 356°
2026-04-22 14:50 41.24868 -3.60533 27449 ft 471 kts 355°
2026-04-22 14:50 41.28149 -3.60694 27700 ft 473 kts 355°
2026-04-22 14:50 41.31439 -3.60853 27953 ft 474 kts 355°
2026-04-22 14:51 41.34740 -3.60988 28203 ft 475 kts 356°
2026-04-22 14:51 41.38049 -3.61095 28504 ft 475 kts 356°
2026-04-22 14:51 41.41356 -3.61175 28867 ft 474 kts 356°
2026-04-22 14:51 41.44649 -3.61241 29218 ft 473 kts 356°
2026-04-22 14:52 41.47934 -3.61305 29562 ft 472 kts 356°
2026-04-22 14:52 41.51213 -3.61370 29912 ft 471 kts 356°
2026-04-22 14:52 41.54484 -3.61407 30245 ft 470 kts 357°
2026-04-22 14:52 41.57747 -3.61414 30547 ft 468 kts 357°
2026-04-22 14:53 41.61008 -3.61404 30842 ft 467 kts 357°
2026-04-22 14:53 41.64213 -3.61385 31129 ft 466 kts 357°
2026-04-22 14:53 41.67454 -3.61365 31416 ft 465 kts 357°
2026-04-22 14:53 41.70689 -3.61351 31710 ft 464 kts 357°
2026-04-22 14:54 41.73915 -3.61346 31999 ft 463 kts 357°
2026-04-22 14:54 41.77137 -3.61349 32280 ft 463 kts 356°
2026-04-22 14:54 41.80356 -3.61354 32568 ft 462 kts 356°
2026-04-22 14:54 41.83563 -3.61357 32857 ft 461 kts 356°
2026-04-22 14:55 41.86763 -3.61359 33150 ft 460 kts 357°
2026-04-22 14:55 41.89957 -3.61358 33419 ft 459 kts 356°
2026-04-22 14:55 41.93144 -3.61356 33709 ft 458 kts 356°
2026-04-22 14:55 41.96322 -3.61352 34013 ft 456 kts 356°
2026-04-22 14:56 41.99493 -3.61350 34282 ft 454 kts 356°
2026-04-22 14:56 42.02649 -3.61354 34535 ft 453 kts 356°
2026-04-22 14:56 42.05793 -3.61443 34784 ft 451 kts 354°
2026-04-22 14:56 42.08924 -3.61628 35021 ft 450 kts 353°
2026-04-22 14:57 42.12043 -3.61871 35245 ft 449 kts 353°
2026-04-22 14:57 42.15154 -3.62130 35469 ft 448 kts 353°
2026-04-22 14:57 42.18264 -3.62378 35690 ft 447 kts 353°
2026-04-22 14:57 42.21365 -3.62605 35927 ft 446 kts 354°
2026-04-22 14:58 42.24462 -3.62815 36036 ft 446 kts 354°
2026-04-22 14:58 42.27559 -3.63014 36058 ft 446 kts 354°
2026-04-22 14:58 42.32703 -3.63328 36054 ft 445 kts 354°
2026-04-22 14:59 42.38846 -3.64108 36053 ft 442 kts 348°
2026-04-22 14:59 42.44922 -3.65323 36056 ft 442 kts 348°
2026-04-22 15:00 42.50997 -3.66541 36050 ft 442 kts 348°
2026-04-22 15:00 42.57081 -3.67753 36051 ft 442 kts 348°
2026-04-22 15:01 42.63163 -3.68964 36049 ft 442 kts 348°
2026-04-22 15:01 42.69244 -3.70181 36035 ft 442 kts 348°
2026-04-22 15:02 42.75342 -3.71275 36037 ft 442 kts 349°
2026-04-22 15:02 42.81460 -3.72259 36043 ft 442 kts 349°
2026-04-22 15:03 42.87569 -3.73267 36046 ft 442 kts 349°
2026-04-22 15:03 42.93675 -3.74311 36041 ft 442 kts 349°
2026-04-22 15:04 42.99785 -3.75371 36055 ft 442 kts 349°
2026-04-22 15:04 43.05894 -3.76422 36067 ft 443 kts 349°
2026-04-22 15:05 43.12003 -3.77477 36074 ft 443 kts 349°
2026-04-22 15:05 43.18112 -3.78533 36107 ft 443 kts 349°
2026-04-22 15:06 43.24228 -3.79588 36113 ft 443 kts 349°
2026-04-22 15:06 43.30342 -3.80640 36117 ft 443 kts 349°
2026-04-22 15:07 43.36456 -3.81697 36121 ft 443 kts 349°
2026-04-22 15:07 43.42578 -3.82766 36117 ft 444 kts 349°
2026-04-22 15:08 43.48666 -3.83834 36106 ft 445 kts 349°
2026-04-22 15:08 43.54844 -3.84922 36103 ft 445 kts 349°
2026-04-22 15:09 43.60950 -3.85987 36101 ft 446 kts 349°
2026-04-22 15:09 43.67105 -3.87065 36102 ft 446 kts 349°
2026-04-22 15:10 43.73299 -3.88155 36100 ft 446 kts 349°
2026-04-22 15:10 43.79418 -3.89231 36107 ft 446 kts 349°
2026-04-22 15:11 43.85576 -3.90315 36099 ft 446 kts 349°
2026-04-22 15:11 43.91733 -3.91408 36098 ft 446 kts 349°
2026-04-22 15:12 43.97892 -3.92501 36102 ft 446 kts 348°
2026-04-22 15:12 44.04053 -3.93593 36097 ft 446 kts 348°
2026-04-22 15:13 44.10206 -3.94690 36092 ft 446 kts 348°
2026-04-22 15:13 44.16361 -3.95783 36107 ft 446 kts 348°
2026-04-22 15:14 44.22512 -3.96881 36100 ft 446 kts 348°
2026-04-22 15:14 44.28660 -3.97985 36092 ft 446 kts 348°
2026-04-22 15:15 44.34869 -3.98477 36086 ft 452 kts
2026-04-22 15:15 44.41137 -3.97592 36085 ft 453 kts
2026-04-22 15:16 44.47410 -3.96710 36079 ft 453 kts
2026-04-22 15:16 44.53678 -3.95833 36078 ft 453 kts
2026-04-22 15:17 44.59947 -3.94953 36087 ft 453 kts
2026-04-22 15:17 44.66220 -3.94071 36083 ft 453 kts
2026-04-22 15:18 44.72487 -3.93186 36078 ft 453 kts
2026-04-22 15:18 44.78755 -3.92293 36073 ft 453 kts
2026-04-22 15:19 44.85031 -3.91406 36071 ft 453 kts
2026-04-22 15:19 44.91302 -3.90515 36072 ft 453 kts
2026-04-22 15:20 44.97573 -3.89619 36076 ft 453 kts
2026-04-22 15:20 45.03844 -3.88722 36071 ft 453 kts
2026-04-22 15:21 45.10120 -3.87823 36069 ft 453 kts
2026-04-22 15:21 45.16391 -3.86915 36074 ft 453 kts
2026-04-22 15:22 45.22664 -3.86016 36068 ft 453 kts
2026-04-22 15:22 45.28939 -3.85115 36067 ft 453 kts
2026-04-22 15:23 45.35202 -3.84206 36069 ft 452 kts
2026-04-22 15:23 45.41465 -3.83301 36059 ft 452 kts
2026-04-22 15:24 45.47691 -3.82398 36056 ft 453 kts
2026-04-22 15:24 45.53953 -3.81483 36062 ft 452 kts
2026-04-22 15:25 45.60216 -3.80579 36042 ft 453 kts
2026-04-22 15:25 45.66484 -3.79659 36049 ft 453 kts
2026-04-22 15:26 45.72748 -3.78734 36048 ft 453 kts
2026-04-22 15:26 45.79020 -3.77813 36049 ft 453 kts
2026-04-22 15:27 45.85290 -3.76890 36038 ft 453 kts
2026-04-22 15:27 45.91562 -3.75979 36053 ft 453 kts
2026-04-22 15:28 45.97842 -3.75051 36041 ft 454 kts
2026-04-22 15:28 46.04121 -3.74112 36039 ft 454 kts
2026-04-22 15:29 46.10401 -3.73173 36035 ft 454 kts
2026-04-22 15:30 46.18769 -3.71922 36040 ft 454 kts
2026-04-22 15:30 46.26116 -3.70828 36037 ft 454 kts
2026-04-22 15:31 46.32406 -3.69963 36047 ft 451 kts 356°
2026-04-22 15:31 46.38657 -3.70030 36040 ft 449 kts 354°
2026-04-22 15:32 46.44909 -3.70144 36041 ft 449 kts 354°
2026-04-22 15:32 46.51167 -3.70264 36049 ft 450 kts 354°
2026-04-22 15:33 46.57424 -3.70376 36039 ft 450 kts 354°
2026-04-22 15:33 46.63683 -3.70494 36041 ft 450 kts 354°
2026-04-22 15:34 46.69908 -3.70614 36040 ft 450 kts 354°
2026-04-22 15:34 46.76171 -3.70730 36045 ft 450 kts 354°
2026-04-22 15:35 46.81419 -3.70821 36045 ft 450 kts 354°
2026-04-22 15:35 46.88704 -3.70950 36046 ft 450 kts 354°
2026-04-22 15:36 46.94967 -3.71061 36056 ft 450 kts 354°
2026-04-22 15:36 47.01234 -3.71184 36051 ft 451 kts 354°
2026-04-22 15:37 47.07511 -3.71298 36049 ft 451 kts 354°
2026-04-22 15:37 47.13784 -3.71416 36059 ft 451 kts 354°
2026-04-22 15:38 47.20067 -3.71535 36055 ft 451 kts 354°
2026-04-22 15:38 47.29479 -3.71715 36062 ft 451 kts 354°
2026-04-22 15:39 47.35751 -3.71836 36072 ft 450 kts 354°
2026-04-22 15:39 47.42018 -3.71959 36068 ft 450 kts 354°
2026-04-22 15:40 47.48284 -3.72078 36064 ft 450 kts 354°
2026-04-22 15:40 47.54556 -3.72193 36088 ft 451 kts 354°
2026-04-22 15:41 47.60829 -3.72312 36071 ft 451 kts 354°
2026-04-22 15:41 47.67107 -3.72434 36070 ft 452 kts 354°
2026-04-22 15:42 47.73354 -3.72550 36065 ft 452 kts 354°
2026-04-22 15:42 47.79642 -3.72679 36072 ft 452 kts 354°
2026-04-22 15:43 47.85938 -3.72803 36068 ft 453 kts 354°
2026-04-22 15:43 47.92239 -3.72921 36074 ft 453 kts 354°
2026-04-22 15:44 47.98547 -3.73043 36082 ft 453 kts 354°
2026-04-22 15:44 48.04857 -3.73164 36076 ft 454 kts 354°
2026-04-22 15:45 48.10105 -3.73274 36080 ft 454 kts 354°
2026-04-22 15:45 48.16428 -3.73399 36094 ft 454 kts 354°
2026-04-22 15:46 48.22752 -3.73516 36087 ft 455 kts 355°
2026-04-22 15:46 48.29084 -3.73636 36090 ft 455 kts 355°
2026-04-22 15:47 48.35415 -3.73753 36097 ft 455 kts 355°
2026-04-22 15:47 48.41750 -3.73867 36108 ft 455 kts 355°
2026-04-22 15:48 48.48087 -3.73986 36112 ft 455 kts 355°
2026-04-22 15:48 48.54419 -3.74122 36126 ft 455 kts 355°
2026-04-22 15:49 48.60756 -3.74259 36144 ft 455 kts 355°
2026-04-22 15:49 48.67087 -3.74379 36142 ft 455 kts 355°
2026-04-22 15:50 48.73414 -3.74501 36140 ft 455 kts 355°
2026-04-22 15:50 48.79745 -3.74636 36142 ft 455 kts 355°
2026-04-22 15:51 48.86074 -3.74769 36146 ft 455 kts 355°
2026-04-22 15:51 48.92404 -3.74890 36147 ft 455 kts 355°
2026-04-22 15:52 48.98732 -3.75010 36144 ft 455 kts 355°
2026-04-22 15:52 49.05059 -3.75141 36151 ft 455 kts 355°
2026-04-22 15:53 49.11392 -3.75274 36153 ft 455 kts 355°
2026-04-22 15:53 49.17721 -3.75407 36153 ft 455 kts 355°
2026-04-22 15:54 49.24053 -3.75522 36160 ft 455 kts 355°
2026-04-22 15:54 49.30383 -3.75647 36168 ft 455 kts 355°
2026-04-22 15:55 49.36718 -3.75781 36167 ft 455 kts 355°
2026-04-22 15:55 49.43010 -3.75903 36172 ft 455 kts 355°
2026-04-22 15:56 49.49351 -3.76036 36185 ft 456 kts 355°
2026-04-22 15:56 49.55690 -3.76175 36190 ft 456 kts 356°
2026-04-22 15:57 49.62035 -3.76309 36189 ft 456 kts 356°
2026-04-22 15:57 49.68383 -3.76341 36197 ft 458 kts
2026-04-22 15:58 49.74682 -3.74498 36211 ft 463 kts
2026-04-22 15:58 49.80940 -3.72111 36209 ft 463 kts 10°
2026-04-22 15:59 49.87194 -3.69723 36214 ft 463 kts
2026-04-22 15:59 49.93449 -3.67331 36225 ft 463 kts 11°
2026-04-22 16:00 49.99703 -3.64927 36226 ft 463 kts
2026-04-22 16:00 50.05941 -3.62525 36249 ft 461 kts 10°
2026-04-22 16:01 50.12156 -3.60131 36256 ft 459 kts
2026-04-22 16:01 50.18316 -3.57755 36258 ft 458 kts 11°
2026-04-22 16:02 50.24496 -3.55355 36253 ft 457 kts
2026-04-22 16:02 50.30663 -3.52953 36252 ft 456 kts 11°
2026-04-22 16:03 50.36823 -3.50557 36257 ft 456 kts 11°
2026-04-22 16:03 50.43033 -3.48764 36252 ft 452 kts
2026-04-22 16:04 50.49274 -3.47581 36253 ft 452 kts
2026-04-22 16:04 50.55511 -3.46395 36248 ft 451 kts
2026-04-22 16:05 50.61752 -3.45214 36254 ft 451 kts
2026-04-22 16:05 50.67986 -3.44021 36285 ft 451 kts
2026-04-22 16:06 50.74217 -3.42832 36287 ft 451 kts
2026-04-22 16:06 50.80445 -3.41634 36285 ft 451 kts
2026-04-22 16:07 50.86672 -3.40435 36285 ft 450 kts
2026-04-22 16:07 50.92891 -3.39242 36275 ft 450 kts
2026-04-22 16:08 50.99116 -3.38041 36268 ft 450 kts
2026-04-22 16:08 51.05334 -3.36833 36262 ft 450 kts
2026-04-22 16:09 51.11552 -3.35636 36260 ft 450 kts
2026-04-22 16:09 51.17771 -3.34422 36259 ft 450 kts
2026-04-22 16:10 51.23992 -3.33180 36267 ft 451 kts
2026-04-22 16:10 51.30208 -3.31920 36281 ft 450 kts
2026-04-22 16:11 51.36417 -3.30653 36295 ft 449 kts
2026-04-22 16:11 51.42615 -3.29387 36293 ft 449 kts
2026-04-22 16:12 51.48816 -3.28130 36290 ft 449 kts
2026-04-22 16:12 51.55008 -3.26881 36293 ft 448 kts
2026-04-22 16:13 51.61160 -3.25630 36288 ft 449 kts
2026-04-22 16:13 51.67350 -3.24348 36399 ft 449 kts
2026-04-22 16:14 51.73543 -3.23065 36411 ft 449 kts
2026-04-22 16:14 51.79742 -3.21785 36413 ft 449 kts
2026-04-22 16:15 51.85943 -3.20503 36395 ft 449 kts
2026-04-22 16:15 51.92153 -3.19291 36371 ft 448 kts
2026-04-22 16:16 51.98366 -3.18702 36348 ft 447 kts 358°
2026-04-22 16:16 52.04582 -3.18416 36309 ft 447 kts 358°
2026-04-22 16:17 52.10797 -3.18050 36309 ft 447 kts 358°
2026-04-22 16:17 52.17018 -3.17566 36310 ft 447 kts 359°
2026-04-22 16:18 52.23236 -3.17063 36310 ft 448 kts 358°
2026-04-22 16:18 52.29458 -3.16571 36320 ft 448 kts 360°
2026-04-22 16:19 52.35680 -3.16100 36329 ft 448 kts
2026-04-22 16:19 52.41904 -3.15628 36327 ft 448 kts 359°
2026-04-22 16:20 52.48081 -3.15151 36327 ft 447 kts 359°
2026-04-22 16:20 52.54305 -3.14662 36335 ft 447 kts 359°
2026-04-22 16:21 52.60525 -3.14167 36328 ft 448 kts 360°
2026-04-22 16:21 52.66753 -3.13669 36321 ft 448 kts 359°
2026-04-22 16:22 52.72924 -3.12068 36334 ft 454 kts 15°
2026-04-22 16:22 52.75864 -3.10118 36337 ft 458 kts 21°
2026-04-22 16:23 52.84510 -3.03360 36334 ft 459 kts 21°
2026-04-22 16:23 52.90292 -2.98934 36358 ft 456 kts 17°
2026-04-22 16:24 52.99194 -2.93485 36377 ft 454 kts 17°
2026-04-22 16:25 53.05121 -2.89853 36374 ft 454 kts 17°
2026-04-22 16:25 53.14013 -2.84374 36371 ft 454 kts 18°
2026-04-22 16:26 53.19939 -2.80707 36372 ft 454 kts 18°
2026-04-22 16:26 53.25861 -2.77028 36377 ft 454 kts 18°
2026-04-22 16:27 53.31788 -2.73327 36365 ft 455 kts 18°
2026-04-22 16:27 53.37715 -2.69621 36379 ft 455 kts 18°
2026-04-22 16:28 53.43639 -2.65914 36386 ft 455 kts 18°
2026-04-22 16:28 53.49573 -2.62194 36390 ft 455 kts 18°
2026-04-22 16:29 53.55509 -2.58443 36382 ft 455 kts 17°
2026-04-22 16:29 53.61389 -2.54711 36396 ft 454 kts 16°
2026-04-22 16:30 53.67298 -2.50959 36401 ft 453 kts 17°
2026-04-22 16:30 53.73192 -2.47213 36405 ft 452 kts 18°
2026-04-22 16:31 53.79120 -2.43436 36406 ft 452 kts 17°
2026-04-22 16:31 53.84957 -2.39700 36410 ft 451 kts 15°
2026-04-22 16:32 53.90831 -2.35932 36396 ft 451 kts 17°
2026-04-22 16:32 53.96720 -2.32317 36400 ft 448 kts 11°
2026-04-22 16:33 53.99775 -2.31413 36404 ft 443 kts
2026-04-22 16:33 54.02840 -2.31393 36412 ft 439 kts 352°
2026-04-22 16:33 54.07778 -2.33244 36401 ft 432 kts 336°
2026-04-22 16:34 54.13351 -2.37076 36406 ft 432 kts 335°
2026-04-22 16:34 54.18890 -2.40916 36415 ft 433 kts 336°
2026-04-22 16:35 54.24474 -2.44812 36423 ft 433 kts 334°
2026-04-22 16:35 54.30056 -2.48712 36426 ft 433 kts 336°
2026-04-22 16:36 54.35648 -2.52618 36433 ft 434 kts 334°
2026-04-22 16:36 54.41228 -2.56536 36430 ft 433 kts 334°
2026-04-22 16:37 54.46807 -2.60467 36434 ft 433 kts 334°
2026-04-22 16:37 54.49598 -2.62440 36278 ft 435 kts 336°
2026-04-22 16:37 54.52400 -2.64420 36026 ft 435 kts 335°
2026-04-22 16:38 54.55199 -2.66400 35785 ft 435 kts 335°
2026-04-22 16:38 54.58000 -2.68383 35535 ft 435 kts 334°
2026-04-22 16:38 54.60804 -2.70372 34895 ft 437 kts 334°
2026-04-22 16:38 54.63630 -2.72386 33974 ft 442 kts 334°
2026-04-22 16:39 54.66485 -2.74421 33019 ft 445 kts 334°
2026-04-22 16:39 54.69358 -2.76470 32090 ft 448 kts 334°
2026-04-22 16:39 54.72251 -2.78534 31171 ft 451 kts 334°
2026-04-22 16:39 54.75172 -2.80619 30012 ft 458 kts 334°
2026-04-22 16:40 54.78122 -2.82737 28897 ft 460 kts 334°
2026-04-22 16:40 54.81083 -2.84875 27921 ft 460 kts 334°
2026-04-22 16:40 54.86895 -2.89064 26626 ft 447 kts 334°
2026-04-22 16:41 54.89749 -2.91118 25968 ft 441 kts 334°
2026-04-22 16:41 54.92563 -2.93144 25377 ft 435 kts 334°
2026-04-22 16:41 54.95346 -2.95151 24772 ft 430 kts 335°
2026-04-22 16:41 54.98096 -2.97138 24188 ft 426 kts 334°
2026-04-22 16:42 55.00819 -2.99112 23513 ft 422 kts 334°
2026-04-22 16:42 55.03518 -3.01076 22943 ft 418 kts 334°
2026-04-22 16:42 55.06159 -3.03001 22371 ft 416 kts 335°
2026-04-22 16:42 55.08822 -3.04947 21788 ft 414 kts 334°
2026-04-22 16:43 55.11472 -3.06884 21205 ft 412 kts 334°
2026-04-22 16:43 55.14150 -3.08841 20632 ft 411 kts 334°
2026-04-22 16:43 55.16789 -3.10772 20035 ft 410 kts 335°
2026-04-22 16:43 55.19346 -3.12647 19879 ft 397 kts 336°
2026-04-22 16:44 55.21832 -3.14473 19741 ft 376 kts 335°
2026-04-22 16:44 55.24170 -3.16186 19582 ft 354 kts 334°
2026-04-22 16:44 55.26410 -3.17831 19068 ft 346 kts 335°
2026-04-22 16:44 55.28637 -3.19349 18396 ft 343 kts 342°
2026-04-22 16:45 55.30987 -3.20069 17622 ft 344 kts 356°
2026-04-22 16:45 55.33371 -3.19887 16968 ft 341 kts
2026-04-22 16:45 55.35726 -3.19505 16365 ft 337 kts
2026-04-22 16:45 55.38058 -3.19138 15705 ft 336 kts
2026-04-22 16:46 55.40382 -3.18781 15096 ft 334 kts
2026-04-22 16:46 55.42677 -3.18427 14537 ft 329 kts
2026-04-22 16:46 55.44955 -3.18073 13900 ft 328 kts
2026-04-22 16:46 55.47218 -3.17720 13258 ft 325 kts
2026-04-22 16:47 55.49447 -3.17372 12686 ft 319 kts
2026-04-22 16:47 55.51651 -3.17029 12060 ft 317 kts
2026-04-22 16:47 55.53834 -3.16689 11478 ft 313 kts
2026-04-22 16:47 55.55990 -3.16350 10901 ft 309 kts
2026-04-22 16:48 55.58130 -3.16010 10293 ft 308 kts
2026-04-22 16:48 55.60250 -3.15673 9631 ft 304 kts
2026-04-22 16:48 55.62340 -3.15339 9020 ft 300 kts
2026-04-22 16:48 55.64409 -3.15005 8372 ft 297 kts
2026-04-22 16:49 55.66452 -3.14682 7818 ft 293 kts
2026-04-22 16:49 55.68429 -3.14374 7589 ft 275 kts
2026-04-22 16:49 55.70297 -3.14082 7492 ft 267 kts
2026-04-22 16:49 55.72153 -3.13904 7506 ft 268 kts 356°
2026-04-22 16:50 55.73912 -3.14968 7499 ft 269 kts 326°
2026-04-22 16:50 55.75167 -3.17364 7514 ft 267 kts 296°
2026-04-22 16:50 55.75655 -3.20483 7510 ft 264 kts 273°
2026-04-22 16:50 55.75779 -3.23737 7472 ft 265 kts 270°
2026-04-22 16:51 55.75861 -3.27010 7235 ft 264 kts 270°
2026-04-22 16:51 55.75938 -3.30266 6985 ft 265 kts 269°
2026-04-22 16:51 55.76014 -3.33525 6734 ft 263 kts 270°
2026-04-22 16:51 55.76083 -3.36764 6477 ft 263 kts 270°
2026-04-22 16:52 55.76161 -3.39975 6219 ft 265 kts 269°
2026-04-22 16:52 55.76250 -3.43245 5955 ft 265 kts 269°
2026-04-22 16:52 55.76334 -3.46498 5705 ft 261 kts 270°
2026-04-22 16:52 55.76404 -3.49752 5441 ft 260 kts 269°
2026-04-22 16:53 55.76482 -3.52974 5184 ft 260 kts 270°
2026-04-22 16:53 55.76548 -3.56110 4926 ft 255 kts 270°
2026-04-22 16:53 55.76599 -3.59259 4660 ft 249 kts 269°
2026-04-22 16:53 55.76651 -3.62325 4397 ft 250 kts 269°
2026-04-22 16:54 55.76720 -3.65408 4138 ft 250 kts 270°
2026-04-22 16:54 55.77094 -3.68361 3997 ft 244 kts 299°
2026-04-22 16:54 55.78191 -3.70601 3993 ft 243 kts 324°
2026-04-22 16:54 55.79593 -3.72343 3994 ft 247 kts 330°
2026-04-22 16:55 55.81169 -3.73291 3989 ft 237 kts
2026-04-22 16:55 55.82691 -3.72482 3990 ft 226 kts 43°
2026-04-22 16:55 55.83680 -3.70428 4001 ft 219 kts 63°
2026-04-22 16:55 55.84469 -3.68107 3952 ft 217 kts 63°
2026-04-22 16:56 55.85235 -3.65860 3723 ft 213 kts 62°
2026-04-22 16:56 55.86003 -3.63617 3451 ft 212 kts 63°
2026-04-22 16:56 55.86770 -3.61378 3163 ft 211 kts 61°
2026-04-22 16:56 55.87522 -3.59183 2882 ft 204 kts 63°
2026-04-22 16:57 55.88252 -3.57053 2599 ft 198 kts 62°
2026-04-22 16:57 55.88962 -3.54976 2324 ft 191 kts 61°
2026-04-22 16:57 55.89635 -3.53008 2064 ft 186 kts 62°
2026-04-22 16:57 55.90281 -3.51118 1827 ft 169 kts 62°
2026-04-22 16:58 55.90680 -3.49950 1674 ft 156 kts 61°
2026-04-22 16:58 55.91382 -3.47890 1402 ft 139 kts 61°
2026-04-22 16:58 55.91864 -3.46478 1203 ft 131 kts 62°
2026-04-22 16:58 55.92336 -3.45087 1011 ft 128 kts 62°
2026-04-22 16:59 55.92797 -3.43732 819 ft 130 kts 61°
2026-04-22 16:59 55.93263 -3.42363 645 ft 127 kts 60°
2026-04-22 16:59 55.93726 -3.40998 460 ft 129 kts 62°
2026-04-22 16:59 55.94189 -3.39635 299 ft 129 kts 60°
2026-04-22 17:00 55.94651 -3.38278 123 ft 126 kts 60°
2026-04-22 17:00 55.95247 -3.36521 112 ft 14 kts 58°
2026-04-22 17:00 55.95224 -3.36388 113 ft 11 kts 142°
2026-04-22 17:01 55.95173 -3.36330 113 ft 7 kts 148°
2026-04-22 17:01 55.95147 -3.36278 116 ft 5 kts 113°
2026-04-22 17:01 55.95133 -3.36205 114 ft 7 kts 108°
2026-04-22 17:01 55.95115 -3.36109 115 ft 10 kts 109°
2026-04-22 17:02 55.95088 -3.35977 115 ft 12 kts 113°
2026-04-22 17:02 55.95044 -3.35840 114 ft 14 kts 128°
2026-04-22 17:02 55.94964 -3.35864 115 ft 11 kts 186°
2026-04-22 17:02 55.94918 -3.35859 114 ft 4 kts 219°
2026-04-22 17:03 55.94905 -3.35931 115 ft 8 kts 253°
2026-04-22 17:03 55.94896 -3.35986 112 ft 3 kts 254°
2026-04-22 17:03 55.94894 -3.36002 113 ft 0 kts 254°